TSU216 KSAT-KJAX

Flight info

Callsign TSU216
Flight time N/A
Altitude 35000
Route DCT CHURN Q56 BLUMS DCT MOLLR DCT
Aircraft R722/M-SDFGRWY/S

Departure

Time 2026-05-06 20:43
Airport San Antonio International Airport (KSAT)

Arrival

Time N/A
Airport Jacksonville International Airport (KJAX)
Time Latitude Longitude Altitude Speed Heading
2026-05-06 20:15 29.53147 -98.45891 786 ft 0 kts 41°
2026-05-06 20:27 29.53140 -98.45898 786 ft 4 kts 30°
2026-05-06 20:28 29.53130 -98.45901 786 ft 4 kts 312°
2026-05-06 20:28 29.53123 -98.45879 787 ft 4 kts 292°
2026-05-06 20:28 29.53116 -98.45864 787 ft 1 kts 308°
2026-05-06 20:35 29.53119 -98.45871 787 ft 3 kts 298°
2026-05-06 20:36 29.53132 -98.45911 786 ft 5 kts 278°
2026-05-06 20:36 29.53144 -98.45974 784 ft 11 kts 293°
2026-05-06 20:36 29.53164 -98.46007 783 ft 0 kts 311°
2026-05-06 20:37 29.53165 -98.46007 783 ft 1 kts 311°
2026-05-06 20:37 29.53185 -98.46033 783 ft 8 kts 312°
2026-05-06 20:38 29.53233 -98.46096 783 ft 13 kts 312°
2026-05-06 20:38 29.53288 -98.46193 783 ft 16 kts 273°
2026-05-06 20:38 29.53214 -98.46302 783 ft 19 kts 220°
2026-05-06 20:38 29.53109 -98.46405 787 ft 21 kts 220°
2026-05-06 20:39 29.52989 -98.46524 789 ft 24 kts 220°
2026-05-06 20:39 29.52865 -98.46646 793 ft 24 kts 220°
2026-05-06 20:39 29.52733 -98.46774 793 ft 25 kts 220°
2026-05-06 20:39 29.52596 -98.46908 793 ft 26 kts 221°
2026-05-06 20:40 29.52480 -98.47025 794 ft 19 kts 221°
2026-05-06 20:40 29.52408 -98.47058 795 ft 0 kts 155°
2026-05-06 20:41 29.52393 -98.47048 795 ft 4 kts 141°
2026-05-06 20:42 29.52356 -98.47013 795 ft 10 kts 140°
2026-05-06 20:42 29.52344 -98.46959 795 ft 2 kts 35°
2026-05-06 20:42 29.52365 -98.46944 794 ft 0 kts 37°
2026-05-06 20:42 29.52374 -98.46936 794 ft 5 kts 38°
2026-05-06 20:43 29.52448 -98.46865 792 ft 36 kts 41°
2026-05-06 20:43 29.52868 -98.46455 790 ft 122 kts 40°
2026-05-06 20:43 29.53680 -98.45653 890 ft 177 kts 41°
2026-05-06 20:43 29.54643 -98.44626 1480 ft 195 kts 45°
2026-05-06 20:44 29.55421 -98.43377 2480 ft 184 kts 63°
2026-05-06 20:44 29.55716 -98.42033 3499 ft 175 kts 81°
2026-05-06 20:44 29.55940 -98.40566 3706 ft 198 kts 71°
2026-05-06 20:44 29.56437 -98.39024 3907 ft 209 kts 68°
2026-05-06 20:45 29.56916 -98.37385 4116 ft 227 kts 73°
2026-05-06 20:45 29.57315 -98.35552 4319 ft 238 kts 76°
2026-05-06 20:45 29.57710 -98.33704 4468 ft 240 kts 75°
2026-05-06 20:45 29.58154 -98.31799 4620 ft 258 kts 75°
2026-05-06 20:46 29.58622 -98.29806 4993 ft 266 kts 75°
2026-05-06 20:46 29.59101 -98.27727 4993 ft 279 kts 75°
2026-05-06 20:46 29.59590 -98.25602 4998 ft 273 kts 75°
2026-05-06 20:46 29.60076 -98.23492 4999 ft 273 kts 75°
2026-05-06 20:47 29.60558 -98.21399 4995 ft 273 kts 75°
2026-05-06 20:47 29.61047 -98.19277 4986 ft 273 kts 75°
2026-05-06 20:47 29.61526 -98.17195 5387 ft 264 kts 75°
2026-05-06 20:47 29.61994 -98.15161 6444 ft 265 kts 75°
2026-05-06 20:48 29.62469 -98.13086 7218 ft 273 kts 75°
2026-05-06 20:48 29.62961 -98.10938 7996 ft 280 kts 75°
2026-05-06 20:48 29.63463 -98.08757 8767 ft 286 kts 75°
2026-05-06 20:48 29.63977 -98.06514 9496 ft 293 kts 75°
2026-05-06 20:49 29.64494 -98.04252 10178 ft 300 kts 75°
2026-05-06 20:49 29.65009 -98.01882 10924 ft 304 kts 81°
2026-05-06 20:49 29.65231 -97.99450 11642 ft 308 kts 92°
2026-05-06 20:49 29.65174 -97.97016 12299 ft 311 kts 96°
2026-05-06 20:50 29.65123 -97.94511 12924 ft 317 kts 93°
2026-05-06 20:50 29.65192 -97.91962 13571 ft 322 kts 91°
2026-05-06 20:50 29.65267 -97.89370 14167 ft 326 kts 93°
2026-05-06 20:50 29.65290 -97.86767 14764 ft 328 kts 94°
2026-05-06 20:51 29.65309 -97.84122 15352 ft 332 kts 94°
2026-05-06 20:51 29.65351 -97.81450 15978 ft 336 kts 93°
2026-05-06 20:51 29.65389 -97.78740 16568 ft 340 kts 94°
2026-05-06 20:51 29.65415 -97.76018 17124 ft 344 kts 94°
2026-05-06 20:52 29.65442 -97.73249 17687 ft 347 kts 94°
2026-05-06 20:52 29.65474 -97.70455 18224 ft 350 kts 94°
2026-05-06 20:52 29.65506 -97.67642 18674 ft 355 kts 94°
2026-05-06 20:52 29.65535 -97.64789 19126 ft 358 kts 94°
2026-05-06 20:53 29.65564 -97.61912 19566 ft 362 kts 94°
2026-05-06 20:53 29.65593 -97.59008 20003 ft 366 kts 95°
2026-05-06 20:53 29.65622 -97.56060 20444 ft 369 kts 95°
2026-05-06 20:53 29.65650 -97.53098 20887 ft 373 kts 95°
2026-05-06 20:54 29.65678 -97.50094 21324 ft 377 kts 95°
2026-05-06 20:54 29.65706 -97.47081 21772 ft 380 kts 95°
2026-05-06 20:54 29.65733 -97.44019 22201 ft 384 kts 95°
2026-05-06 20:54 29.65759 -97.40939 22630 ft 388 kts 95°
2026-05-06 20:55 29.65786 -97.37818 23067 ft 391 kts 95°
2026-05-06 20:55 29.65812 -97.34684 23488 ft 395 kts 95°
2026-05-06 20:55 29.65837 -97.31523 23857 ft 398 kts 95°
2026-05-06 20:55 29.65862 -97.28337 24253 ft 400 kts 95°
2026-05-06 20:56 29.65885 -97.25139 24615 ft 402 kts 95°
2026-05-06 20:56 29.65908 -97.21901 25013 ft 405 kts 95°
2026-05-06 20:56 29.65930 -97.18654 25396 ft 407 kts 95°
2026-05-06 20:56 29.65950 -97.15388 25774 ft 410 kts 95°
2026-05-06 20:57 29.65970 -97.12104 26166 ft 412 kts 95°
2026-05-06 20:57 29.65989 -97.08802 26543 ft 415 kts 95°
2026-05-06 20:57 29.66008 -97.05472 26927 ft 418 kts 95°
2026-05-06 20:57 29.66026 -97.02119 27322 ft 420 kts 95°
2026-05-06 20:58 29.66043 -96.98746 27711 ft 423 kts 95°
2026-05-06 20:58 29.66063 -96.95351 28094 ft 426 kts 95°
2026-05-06 20:58 29.66082 -96.91977 28478 ft 429 kts 95°
2026-05-06 20:58 29.66099 -96.88495 28871 ft 432 kts 95°
2026-05-06 20:59 29.66115 -96.85074 29252 ft 435 kts 95°
2026-05-06 20:59 29.66131 -96.81594 29639 ft 438 kts 95°
2026-05-06 20:59 29.66146 -96.78081 29996 ft 441 kts 95°
2026-05-06 20:59 29.66159 -96.74554 30318 ft 443 kts 95°
2026-05-06 21:00 29.66171 -96.70992 30656 ft 446 kts 94°
2026-05-06 21:00 29.66183 -96.67417 31010 ft 449 kts 94°
2026-05-06 21:00 29.66195 -96.63816 31351 ft 451 kts 94°
2026-05-06 21:00 29.66205 -96.60200 31708 ft 454 kts 94°
2026-05-06 21:01 29.66212 -96.56564 32054 ft 457 kts 94°
2026-05-06 21:01 29.66220 -96.52901 32416 ft 460 kts 94°
2026-05-06 21:01 29.66228 -96.49206 32795 ft 463 kts 94°
2026-05-06 21:01 29.66227 -96.45507 33155 ft 466 kts 94°
2026-05-06 21:02 29.66217 -96.41774 33519 ft 469 kts 94°
2026-05-06 21:02 29.66211 -96.38012 33893 ft 471 kts 94°
2026-05-06 21:02 29.66209 -96.34248 34184 ft 474 kts 94°
2026-05-06 21:02 29.66203 -96.30461 34498 ft 475 kts 94°
2026-05-06 21:03 29.66193 -96.26628 34809 ft 477 kts 94°
2026-05-06 21:03 29.66180 -96.22784 34669 ft 492 kts 94°
2026-05-06 21:03 29.66170 -96.18814 34860 ft 499 kts 94°
2026-05-06 21:03 29.66160 -96.14799 34864 ft 510 kts 94°
2026-05-06 21:04 29.66146 -96.10669 34861 ft 521 kts 94°
2026-05-06 21:04 29.66129 -96.06441 34866 ft 533 kts 93°
2026-05-06 21:04 29.66112 -96.02136 34863 ft 545 kts 93°
2026-05-06 21:05 29.66075 -95.93300 34869 ft 557 kts 93°
2026-05-06 21:05 29.66030 -95.84398 34871 ft 557 kts 93°
2026-05-06 21:06 29.65978 -95.75498 34856 ft 557 kts 93°
2026-05-06 21:06 29.65903 -95.66602 34854 ft 556 kts 93°
2026-05-06 21:07 29.65813 -95.57696 34864 ft 556 kts 93°
2026-05-06 21:07 29.65749 -95.50294 34863 ft 557 kts 93°
2026-05-06 21:08 29.65685 -95.41384 34859 ft 557 kts 93°
2026-05-06 21:08 29.65605 -95.32474 34864 ft 557 kts 93°
2026-05-06 21:09 29.65779 -95.23576 34857 ft 560 kts 82°
2026-05-06 21:09 29.66626 -95.19210 34877 ft 561 kts 71°
2026-05-06 21:09 29.68075 -95.15051 34875 ft 559 kts 61°
2026-05-06 21:09 29.70069 -95.11244 34864 ft 554 kts 50°
2026-05-06 21:10 29.72515 -95.07913 34875 ft 548 kts 40°
2026-05-06 21:10 29.78316 -95.02191 33514 ft 554 kts 41°
2026-05-06 21:10 29.80726 -94.98761 32740 ft 544 kts 53°
2026-05-06 21:11 29.82609 -94.95035 32849 ft 538 kts 64°
2026-05-06 21:11 29.83927 -94.90976 32978 ft 544 kts 75°
2026-05-06 21:11 29.84716 -94.86700 33116 ft 547 kts 81°
2026-05-06 21:11 29.85258 -94.82373 33242 ft 548 kts 85°
2026-05-06 21:12 29.85592 -94.77980 33360 ft 549 kts 87°
2026-05-06 21:12 29.85924 -94.73609 33477 ft 551 kts 84°
2026-05-06 21:12 29.86435 -94.69234 33599 ft 552 kts 82°
2026-05-06 21:12 29.86988 -94.64840 33705 ft 553 kts 83°
2026-05-06 21:13 29.87406 -94.60476 33820 ft 538 kts 85°
2026-05-06 21:13 29.88210 -94.51926 34001 ft 539 kts 83°
2026-05-06 21:14 29.89139 -94.43326 34182 ft 542 kts 85°
2026-05-06 21:14 29.89536 -94.39000 34283 ft 543 kts 85°
2026-05-06 21:14 29.89965 -94.34661 34379 ft 544 kts 84°
2026-05-06 21:15 29.90869 -94.25987 34578 ft 546 kts 84°
2026-05-06 21:15 29.91706 -94.17291 34770 ft 547 kts 84°
2026-05-06 21:16 29.92589 -94.08546 34875 ft 549 kts 84°
2026-05-06 21:16 29.93437 -93.99740 34873 ft 562 kts 84°
2026-05-06 21:17 29.94323 -93.90745 34889 ft 564 kts 84°
2026-05-06 21:17 29.95184 -93.81755 34915 ft 564 kts 84°
2026-05-06 21:18 29.96045 -93.72831 34912 ft 564 kts 84°
2026-05-06 21:18 29.96897 -93.63849 34909 ft 564 kts 84°
2026-05-06 21:19 29.97749 -93.54856 34908 ft 564 kts 84°
2026-05-06 21:19 29.98592 -93.45865 34905 ft 563 kts 84°
2026-05-06 21:20 29.99430 -93.36871 34905 ft 564 kts 84°
2026-05-06 21:20 30.00261 -93.27889 34901 ft 563 kts 84°
2026-05-06 21:21 30.01084 -93.18906 34898 ft 563 kts 84°
2026-05-06 21:21 30.01902 -93.09932 34893 ft 563 kts 84°
2026-05-06 21:22 30.02714 -93.00939 34897 ft 563 kts 84°
2026-05-06 21:22 30.03519 -92.91959 34910 ft 563 kts 84°
2026-05-06 21:23 30.04316 -92.83006 34919 ft 563 kts 85°
2026-05-06 21:23 30.05111 -92.74010 34918 ft 562 kts 85°
2026-05-06 21:24 30.05897 -92.65021 34919 ft 562 kts 85°
2026-05-06 21:24 30.06678 -92.56049 34919 ft 562 kts 85°
2026-05-06 21:25 30.07451 -92.47067 34915 ft 562 kts 85°
2026-05-06 21:25 30.08219 -92.38091 34911 ft 562 kts 85°
2026-05-06 21:26 30.08981 -92.29097 34905 ft 562 kts 85°
2026-05-06 21:26 30.09737 -92.20127 34904 ft 562 kts 85°
2026-05-06 21:27 30.10487 -92.11133 34903 ft 562 kts 85°
2026-05-06 21:27 30.11231 -92.02142 34909 ft 562 kts 85°
2026-05-06 21:28 30.11962 -91.93222 34907 ft 562 kts 85°
2026-05-06 21:28 30.12699 -91.84170 34907 ft 562 kts 85°
2026-05-06 21:29 30.13425 -91.75173 34908 ft 562 kts 85°
2026-05-06 21:29 30.14140 -91.66235 34911 ft 562 kts 85°
2026-05-06 21:30 30.14853 -91.57242 34922 ft 562 kts 85°
2026-05-06 21:30 30.15560 -91.48242 34925 ft 562 kts 85°
2026-05-06 21:31 30.16261 -91.39244 34926 ft 562 kts 85°
2026-05-06 21:31 30.16956 -91.30236 34924 ft 562 kts 85°
2026-05-06 21:32 30.17644 -91.21248 34921 ft 562 kts 85°
2026-05-06 21:32 30.18665 -91.07747 34918 ft 562 kts 85°
2026-05-06 21:33 30.19337 -90.98753 34915 ft 562 kts 85°
2026-05-06 21:33 30.20004 -90.89753 34915 ft 561 kts 85°
2026-05-06 21:34 30.20664 -90.80764 34917 ft 561 kts 85°
2026-05-06 21:34 30.21316 -90.71780 34934 ft 561 kts 85°
2026-05-06 21:35 30.21965 -90.62779 34935 ft 561 kts 85°
2026-05-06 21:35 30.22606 -90.53787 34933 ft 561 kts 85°
2026-05-06 21:36 30.23241 -90.44795 34934 ft 561 kts 85°
2026-05-06 21:36 30.23870 -90.35801 34940 ft 561 kts 85°
2026-05-06 21:37 30.24493 -90.26803 34942 ft 561 kts 85°
2026-05-06 21:37 30.25109 -90.17806 34950 ft 562 kts 85°
2026-05-06 21:38 30.25721 -90.08797 34952 ft 562 kts 85°
2026-05-06 21:38 30.26322 -89.99844 34951 ft 562 kts 85°
2026-05-06 21:39 30.26921 -89.90832 34949 ft 562 kts 85°
2026-05-06 21:39 30.27517 -89.81767 34949 ft 561 kts 85°
2026-05-06 21:40 30.28104 -89.72760 34945 ft 561 kts 85°
2026-05-06 21:40 30.28679 -89.63816 34947 ft 561 kts 85°
2026-05-06 21:41 30.29257 -89.54743 34962 ft 561 kts 85°
2026-05-06 21:41 30.29820 -89.45806 34966 ft 561 kts 85°
2026-05-06 21:42 30.30381 -89.36802 34966 ft 561 kts 85°
2026-05-06 21:42 30.30936 -89.27799 34961 ft 561 kts 85°
2026-05-06 21:43 30.31485 -89.18785 34971 ft 561 kts 85°
2026-05-06 21:43 30.32032 -89.09723 34973 ft 561 kts 85°
2026-05-06 21:44 30.32564 -89.00781 34972 ft 561 kts 85°
2026-05-06 21:44 30.33095 -88.91761 34956 ft 561 kts 85°
2026-05-06 21:45 30.33618 -88.82759 34963 ft 561 kts 85°
2026-05-06 21:45 30.34136 -88.73748 34965 ft 561 kts 85°
2026-05-06 21:46 30.34651 -88.64680 34994 ft 561 kts 85°
2026-05-06 21:46 30.35153 -88.55727 34997 ft 561 kts 85°
2026-05-06 21:47 30.35652 -88.46718 34997 ft 561 kts 85°
2026-05-06 21:47 30.36144 -88.37723 34999 ft 561 kts 85°
2026-05-06 21:48 30.36632 -88.28698 34998 ft 561 kts 85°
2026-05-06 21:48 30.37113 -88.19689 35006 ft 561 kts 85°
2026-05-06 21:49 30.37586 -88.10685 35005 ft 561 kts 85°
2026-05-06 21:49 30.38054 -88.01682 35009 ft 561 kts 85°
2026-05-06 21:50 30.38516 -87.92663 35017 ft 561 kts 85°
2026-05-06 21:50 30.38972 -87.83641 35014 ft 561 kts 85°
2026-05-06 21:51 30.39421 -87.74631 35019 ft 561 kts 85°
2026-05-06 21:51 30.39791 -87.67133 35022 ft 561 kts 85°
2026-05-06 21:52 30.40229 -87.58123 35028 ft 561 kts 85°
2026-05-06 21:52 30.40661 -87.49109 35028 ft 561 kts 85°
2026-05-06 21:53 30.41087 -87.40072 35024 ft 561 kts 85°
2026-05-06 21:53 30.41507 -87.31061 35024 ft 561 kts 85°
2026-05-06 21:54 30.41920 -87.22026 35024 ft 561 kts 85°
2026-05-06 21:54 30.42313 -87.13342 35025 ft 562 kts 85°
2026-05-06 21:55 30.42715 -87.04294 35034 ft 562 kts 85°
2026-05-06 21:55 30.43111 -86.95269 35038 ft 562 kts 86°
2026-05-06 21:56 30.43501 -86.86210 35035 ft 562 kts 86°
2026-05-06 21:56 30.43883 -86.77191 35019 ft 562 kts 86°
2026-05-06 21:57 30.44263 -86.68092 35016 ft 563 kts 86°
2026-05-06 21:57 30.44635 -86.59034 35036 ft 563 kts 86°
2026-05-06 21:58 30.44999 -86.49990 35030 ft 563 kts 86°
2026-05-06 21:58 30.45358 -86.40936 35035 ft 563 kts 86°
2026-05-06 21:59 30.45711 -86.31861 35040 ft 563 kts 86°
2026-05-06 21:59 30.46056 -86.22859 35046 ft 563 kts 86°
2026-05-06 22:00 30.46396 -86.13792 35056 ft 563 kts 86°
2026-05-06 22:00 30.46729 -86.04753 35054 ft 562 kts 86°
2026-05-06 22:01 30.47059 -85.95623 35045 ft 563 kts 86°
2026-05-06 22:01 30.47377 -85.86638 35017 ft 562 kts 86°
2026-05-06 22:02 30.47696 -85.77559 35035 ft 562 kts 86°
2026-05-06 22:02 30.48000 -85.68532 35038 ft 561 kts 86°
2026-05-06 22:03 30.48305 -85.59474 35046 ft 561 kts 86°
2026-05-06 22:03 30.48598 -85.50439 35051 ft 560 kts 86°
2026-05-06 22:04 30.48889 -85.41415 35053 ft 560 kts 86°
2026-05-06 22:04 30.49170 -85.32388 35051 ft 560 kts 86°
2026-05-06 22:05 30.49447 -85.23368 35038 ft 559 kts 86°
2026-05-06 22:05 30.49716 -85.14379 35038 ft 558 kts 86°
2026-05-06 22:06 30.49977 -85.05454 35047 ft 557 kts 86°
2026-05-06 22:06 30.50236 -84.96405 35049 ft 557 kts 86°
2026-05-06 22:07 30.50483 -84.87517 35038 ft 556 kts 86°
2026-05-06 22:07 30.50730 -84.78477 35039 ft 556 kts 86°
2026-05-06 22:08 30.50965 -84.69570 35039 ft 555 kts 86°
2026-05-06 22:08 30.51197 -84.60621 35039 ft 555 kts 86°
2026-05-06 22:09 30.51421 -84.51686 35033 ft 554 kts 86°
2026-05-06 22:09 30.51639 -84.42783 35029 ft 554 kts 86°
2026-05-06 22:10 30.51851 -84.33853 35028 ft 554 kts 86°
2026-05-06 22:10 30.51956 -84.29358 34919 ft 554 kts 86°
2026-05-06 22:10 30.52057 -84.24902 34961 ft 552 kts 86°
2026-05-06 22:11 30.52260 -84.15964 34602 ft 557 kts 86°
2026-05-06 22:11 30.52355 -84.11522 33873 ft 545 kts 86°
2026-05-06 22:11 30.52446 -84.07158 33136 ft 538 kts 86°
2026-05-06 22:12 30.52540 -84.02854 32441 ft 532 kts 86°
2026-05-06 22:12 30.52632 -83.98565 31741 ft 528 kts 86°
2026-05-06 22:12 30.52718 -83.94337 31058 ft 523 kts 86°
2026-05-06 22:12 30.52801 -83.90144 30371 ft 519 kts 86°
2026-05-06 22:13 30.52884 -83.85966 29642 ft 514 kts 86°
2026-05-06 22:13 30.52966 -83.81854 28963 ft 507 kts 86°
2026-05-06 22:13 30.53045 -83.77789 28300 ft 501 kts 86°
2026-05-06 22:13 30.53120 -83.73782 27654 ft 495 kts 86°
2026-05-06 22:14 30.53194 -83.69818 27012 ft 489 kts 86°
2026-05-06 22:14 30.53266 -83.65887 26373 ft 484 kts 87°
2026-05-06 22:14 30.53337 -83.62023 25737 ft 479 kts 87°
2026-05-06 22:14 30.53406 -83.58174 25115 ft 473 kts 87°
2026-05-06 22:15 30.53471 -83.54380 24495 ft 468 kts 87°
2026-05-06 22:15 30.53519 -83.50617 23952 ft 462 kts 88°
2026-05-06 22:15 30.53450 -83.46908 23508 ft 458 kts 92°
2026-05-06 22:15 30.53262 -83.43261 23084 ft 453 kts 92°
2026-05-06 22:16 30.53119 -83.39620 22676 ft 449 kts 90°
2026-05-06 22:16 30.53058 -83.36071 22284 ft 446 kts 90°
2026-05-06 22:16 30.52978 -83.32430 21876 ft 442 kts 91°
2026-05-06 22:16 30.52843 -83.28879 21490 ft 438 kts 91°
2026-05-06 22:17 30.52718 -83.25411 21100 ft 435 kts 91°
2026-05-06 22:17 30.52624 -83.21917 20716 ft 431 kts 90°
2026-05-06 22:17 30.52529 -83.18465 20334 ft 427 kts 91°
2026-05-06 22:17 30.52413 -83.15000 19955 ft 424 kts 91°
2026-05-06 22:18 30.52298 -83.11635 19582 ft 421 kts 91°
2026-05-06 22:18 30.52195 -83.08270 19209 ft 417 kts 91°
2026-05-06 22:18 30.52094 -83.04905 18835 ft 414 kts 91°
2026-05-06 22:18 30.51987 -83.01592 18468 ft 411 kts 91°
2026-05-06 22:19 30.51878 -82.98285 18076 ft 407 kts 91°
2026-05-06 22:19 30.51772 -82.95011 17706 ft 404 kts 91°
2026-05-06 22:19 30.51668 -82.91763 17343 ft 401 kts 91°
2026-05-06 22:19 30.51562 -82.88547 16986 ft 399 kts 91°
2026-05-06 22:20 30.51455 -82.85340 16635 ft 396 kts 91°
2026-05-06 22:20 30.51350 -82.82191 16282 ft 393 kts 91°
2026-05-06 22:20 30.51245 -82.79042 15934 ft 391 kts 91°
2026-05-06 22:20 30.51137 -82.75876 15583 ft 388 kts 91°
2026-05-06 22:21 30.51030 -82.72755 15232 ft 386 kts 91°
2026-05-06 22:21 30.50926 -82.69698 14907 ft 383 kts 91°
2026-05-06 22:21 30.50893 -82.66601 14549 ft 380 kts 88°
2026-05-06 22:21 30.51056 -82.63546 14212 ft 377 kts 84°
2026-05-06 22:22 30.51280 -82.60515 13871 ft 375 kts 85°
2026-05-06 22:22 30.51395 -82.57506 13513 ft 372 kts 88°
2026-05-06 22:22 30.51468 -82.54629 13190 ft 346 kts 87°
2026-05-06 22:22 30.51587 -82.51909 12885 ft 333 kts 86°
2026-05-06 22:23 30.51722 -82.49241 12596 ft 330 kts 86°
2026-05-06 22:23 30.51830 -82.46591 12304 ft 328 kts 87°
2026-05-06 22:23 30.51930 -82.43950 12010 ft 326 kts 87°
2026-05-06 22:23 30.52038 -82.41344 11728 ft 324 kts 86°
2026-05-06 22:24 30.52148 -82.38739 11438 ft 323 kts 86°
2026-05-06 22:24 30.52255 -82.36146 11152 ft 320 kts 87°
2026-05-06 22:24 30.52400 -82.33573 10882 ft 319 kts 84°
2026-05-06 22:24 30.52642 -82.31024 10612 ft 317 kts 82°
2026-05-06 22:25 30.52894 -82.28521 10341 ft 303 kts 84°
2026-05-06 22:25 30.53091 -82.26160 10078 ft 285 kts 84°
2026-05-06 22:25 30.53272 -82.23950 9832 ft 274 kts 84°
2026-05-06 22:25 30.53464 -82.21771 9588 ft 269 kts 84°
2026-05-06 22:26 30.53651 -82.19623 9370 ft 267 kts 84°
2026-05-06 22:26 30.53833 -82.17483 9135 ft 266 kts 84°
2026-05-06 22:26 30.54017 -82.15350 8903 ft 264 kts 84°
2026-05-06 22:26 30.54200 -82.13237 8685 ft 262 kts 84°
2026-05-06 22:27 30.54376 -82.11160 8477 ft 260 kts 84°
2026-05-06 22:27 30.54435 -82.10455 8404 ft 259 kts 84°
2026-05-06 22:27 30.54547 -82.09136 8257 ft 253 kts 84°
2026-05-06 22:28 30.54718 -82.07165 8015 ft 238 kts 84°
2026-05-06 22:28 30.54880 -82.05306 7761 ft 227 kts 85°
2026-05-06 22:28 30.55028 -82.03531 7511 ft 217 kts 85°
2026-05-06 22:28 30.55173 -82.01803 7247 ft 211 kts 85°
2026-05-06 22:29 30.55314 -82.00146 6997 ft 203 kts 86°
2026-05-06 22:29 30.55450 -81.98536 6744 ft 197 kts 85°
2026-05-06 22:29 30.55585 -81.96977 6502 ft 191 kts 86°
2026-05-06 22:29 30.55711 -81.95467 6226 ft 185 kts 86°
2026-05-06 22:30 30.55834 -81.94002 5986 ft 178 kts 86°
2026-05-06 22:30 30.55948 -81.92637 5764 ft 164 kts 86°
2026-05-06 22:30 30.56055 -81.91362 5446 ft 153 kts 86°
2026-05-06 22:30 30.56163 -81.90144 5042 ft 151 kts 87°
2026-05-06 22:31 30.56254 -81.88924 4500 ft 152 kts 88°
2026-05-06 22:31 30.56357 -81.87729 3951 ft 151 kts 87°
2026-05-06 22:31 30.56461 -81.86476 3333 ft 151 kts 86°
2026-05-06 22:31 30.56520 -81.85908 3214 ft 140 kts 87°